DLH6KC EDDL-EDDF

Flight info

Callsign DLH6KC
Flight time 0h 31m
Altitude 23000
Route COL6T COL T911 ROLIS ROLIS5D
Aircraft A320/M-SDE3FGHIRWY/LB1

Departure

Time 2026-04-14 15:34
Airport Düsseldorf Airport (EDDL)

Arrival

Time 2026-04-14 16:05
Airport Frankfurt Main Airport (EDDF)
Time Latitude Longitude Altitude Speed Heading
2026-04-14 15:05 51.28150 6.76543 126 ft 0 kts 96°
2026-04-14 15:23 51.28151 6.76540 130 ft 2 kts 96°
2026-04-14 15:24 51.28155 6.76500 130 ft 4 kts 103°
2026-04-14 15:24 51.28155 6.76468 125 ft 2 kts 54°
2026-04-14 15:24 51.28139 6.76438 127 ft 4 kts 35°
2026-04-14 15:24 51.28116 6.76421 127 ft 4 kts
2026-04-14 15:25 51.28099 6.76422 128 ft 4 kts 346°
2026-04-14 15:25 51.28075 6.76437 125 ft 2 kts 327°
2026-04-14 15:25 51.28073 6.76439 125 ft 0 kts 327°
2026-04-14 15:27 51.28094 6.76417 128 ft 10 kts 328°
2026-04-14 15:27 51.28173 6.76421 129 ft 11 kts
2026-04-14 15:27 51.28242 6.76454 128 ft 10 kts 37°
2026-04-14 15:28 51.28297 6.76502 127 ft 9 kts 343°
2026-04-14 15:28 51.28361 6.76503 121 ft 11 kts 48°
2026-04-14 15:28 51.28402 6.76595 121 ft 10 kts 52°
2026-04-14 15:28 51.28446 6.76687 125 ft 15 kts 53°
2026-04-14 15:29 51.28525 6.76848 125 ft 19 kts 51°
2026-04-14 15:29 51.28599 6.77006 127 ft 17 kts 52°
2026-04-14 15:29 51.28665 6.77147 128 ft 15 kts 54°
2026-04-14 15:29 51.28726 6.77276 128 ft 14 kts 52°
2026-04-14 15:30 51.28782 6.77391 126 ft 13 kts 52°
2026-04-14 15:30 51.28857 6.77546 127 ft 20 kts 52°
2026-04-14 15:30 51.28941 6.77719 127 ft 20 kts 52°
2026-04-14 15:30 51.29019 6.77887 129 ft 18 kts 53°
2026-04-14 15:31 51.29108 6.78076 133 ft 27 kts 53°
2026-04-14 15:31 51.29220 6.78311 141 ft 26 kts 52°
2026-04-14 15:31 51.29321 6.78521 150 ft 19 kts 49°
2026-04-14 15:31 51.29406 6.78572 152 ft 9 kts 355°
2026-04-14 15:32 51.29430 6.78569 152 ft 1 kts 355°
2026-04-14 15:32 51.29433 6.78568 152 ft 0 kts 355°
2026-04-14 15:32 51.29460 6.78565 152 ft 10 kts 355°
2026-04-14 15:32 51.29515 6.78469 152 ft 17 kts 248°
2026-04-14 15:33 51.29503 6.78439 151 ft 0 kts 233°
2026-04-14 15:33 51.29501 6.78434 151 ft 9 kts 233°
2026-04-14 15:33 51.29289 6.77988 142 ft 89 kts 232°
2026-04-14 15:34 51.28785 6.76934 134 ft 147 kts 233°
2026-04-14 15:34 51.28137 6.75558 676 ft 154 kts 234°
2026-04-14 15:34 51.27486 6.74154 1435 ft 158 kts 235°
2026-04-14 15:34 51.26786 6.72656 1852 ft 178 kts 233°
2026-04-14 15:35 51.26015 6.71037 2360 ft 194 kts 233°
2026-04-14 15:35 51.25146 6.69218 2733 ft 220 kts 234°
2026-04-14 15:35 51.24184 6.67150 3266 ft 244 kts 234°
2026-04-14 15:35 51.23130 6.64898 3960 ft 258 kts 228°
2026-04-14 15:36 51.21607 6.63434 4997 ft 262 kts 192°
2026-04-14 15:36 51.19786 6.63572 5964 ft 268 kts 164°
2026-04-14 15:36 51.18121 6.64927 6911 ft 274 kts 142°
2026-04-14 15:36 51.16878 6.67264 7750 ft 281 kts 124°
2026-04-14 15:37 51.15791 6.69884 8626 ft 286 kts 123°
2026-04-14 15:37 51.14696 6.72564 9505 ft 291 kts 123°
2026-04-14 15:37 51.13585 6.75288 10369 ft 297 kts 122°
2026-04-14 15:37 51.12416 6.78153 10700 ft 321 kts 123°
2026-04-14 15:38 51.11153 6.81241 10974 ft 344 kts 123°
2026-04-14 15:38 51.09821 6.84469 11573 ft 353 kts 123°
2026-04-14 15:38 51.08461 6.87755 12321 ft 358 kts 123°
2026-04-14 15:38 51.07084 6.91076 13074 ft 362 kts 123°
2026-04-14 15:39 51.05689 6.94442 13830 ft 367 kts 123°
2026-04-14 15:39 51.04280 6.97835 14517 ft 370 kts 123°
2026-04-14 15:39 51.02848 7.01271 15188 ft 374 kts 123°
2026-04-14 15:39 51.01402 7.04739 15846 ft 379 kts 123°
2026-04-14 15:40 50.99937 7.08244 16485 ft 383 kts 123°
2026-04-14 15:40 50.98454 7.11782 17128 ft 387 kts 123°
2026-04-14 15:40 50.96956 7.15358 17775 ft 391 kts 123°
2026-04-14 15:40 50.95441 7.18976 18385 ft 395 kts 123°
2026-04-14 15:41 50.93910 7.22624 18924 ft 399 kts 123°
2026-04-14 15:41 50.92362 7.26307 19464 ft 403 kts 123°
2026-04-14 15:41 50.90798 7.30016 19992 ft 406 kts 123°
2026-04-14 15:41 50.89224 7.33757 20519 ft 410 kts 123°
2026-04-14 15:42 50.87634 7.37527 21044 ft 413 kts 123°
2026-04-14 15:42 50.86028 7.41325 21560 ft 417 kts 123°
2026-04-14 15:42 50.84409 7.45156 22062 ft 420 kts 123°
2026-04-14 15:42 50.82777 7.49013 22564 ft 424 kts 123°
2026-04-14 15:43 50.81131 7.52900 23038 ft 427 kts 123°
2026-04-14 15:43 50.79296 7.56589 23184 ft 427 kts 134°
2026-04-14 15:43 50.77065 7.59657 23092 ft 423 kts 144°
2026-04-14 15:43 50.74574 7.62013 22044 ft 415 kts 156°
2026-04-14 15:44 50.71930 7.63752 20962 ft 409 kts 158°
2026-04-14 15:44 50.69314 7.65448 19982 ft 405 kts 158°
2026-04-14 15:44 50.66727 7.67143 19232 ft 400 kts 158°
2026-04-14 15:44 50.64176 7.68833 18513 ft 395 kts 158°
2026-04-14 15:45 50.61659 7.70509 17716 ft 391 kts 157°
2026-04-14 15:45 50.59168 7.72168 16954 ft 386 kts 157°
2026-04-14 15:45 50.56711 7.73800 16225 ft 382 kts 157°
2026-04-14 15:45 50.54258 7.75422 15629 ft 382 kts 157°
2026-04-14 15:46 50.51810 7.77040 15070 ft 381 kts 157°
2026-04-14 15:46 50.49370 7.78649 14533 ft 380 kts 157°
2026-04-14 15:46 50.46935 7.80254 13989 ft 379 kts 156°
2026-04-14 15:46 50.44519 7.81881 13393 ft 377 kts 153°
2026-04-14 15:47 50.42299 7.84008 12808 ft 374 kts 142°
2026-04-14 15:47 50.40257 7.86532 12157 ft 373 kts 141°
2026-04-14 15:47 50.38227 7.89054 11526 ft 372 kts 142°
2026-04-14 15:47 50.36206 7.91566 10929 ft 369 kts 142°
2026-04-14 15:48 50.34237 7.94009 10771 ft 353 kts 143°
2026-04-14 15:48 50.32358 7.96334 10644 ft 337 kts 143°
2026-04-14 15:48 50.30554 7.98568 10520 ft 324 kts 143°
2026-04-14 15:48 50.28823 8.00713 10394 ft 311 kts 143°
2026-04-14 15:49 50.27274 8.02985 10269 ft 301 kts 130°
2026-04-14 15:49 50.26191 8.05718 10186 ft 293 kts 114°
2026-04-14 15:49 50.25575 8.08721 10192 ft 285 kts 105°
2026-04-14 15:49 50.25105 8.11644 10192 ft 270 kts 105°
2026-04-14 15:50 50.24655 8.14434 10192 ft 262 kts 106°
2026-04-14 15:50 50.24209 8.17186 10191 ft 260 kts 105°
2026-04-14 15:50 50.23762 8.19925 10193 ft 260 kts 105°
2026-04-14 15:50 50.23318 8.22659 10196 ft 260 kts 105°
2026-04-14 15:51 50.22872 8.25395 10196 ft 260 kts 106°
2026-04-14 15:51 50.22426 8.28133 10193 ft 260 kts 105°
2026-04-14 15:51 50.21981 8.30872 10194 ft 261 kts 105°
2026-04-14 15:51 50.21535 8.33614 10195 ft 260 kts 106°
2026-04-14 15:52 50.20873 8.36183 10187 ft 258 kts 121°
2026-04-14 15:52 50.19804 8.38392 9984 ft 254 kts 138°
2026-04-14 15:52 50.18414 8.40046 9630 ft 251 kts 154°
2026-04-14 15:52 50.16818 8.41096 9270 ft 249 kts 162°
2026-04-14 15:53 50.15184 8.42009 8889 ft 250 kts 162°
2026-04-14 15:53 50.13494 8.42530 8512 ft 248 kts 185°
2026-04-14 15:53 50.11889 8.41722 8210 ft 243 kts 217°
2026-04-14 15:53 50.10818 8.39718 8193 ft 245 kts 247°
2026-04-14 15:54 50.09690 8.34735 8192 ft 248 kts 253°
2026-04-14 15:54 50.09168 8.32144 8193 ft 248 kts 254°
2026-04-14 15:54 50.08647 8.29583 8194 ft 248 kts 254°
2026-04-14 15:55 50.08131 8.27028 8050 ft 247 kts 254°
2026-04-14 15:55 50.07608 8.24482 7662 ft 247 kts 254°
2026-04-14 15:55 50.07085 8.21947 7357 ft 245 kts 254°
2026-04-14 15:55 50.06568 8.19429 7019 ft 244 kts 254°
2026-04-14 15:56 50.06043 8.16916 6665 ft 244 kts 253°
2026-04-14 15:56 50.05523 8.14414 6321 ft 243 kts 253°
2026-04-14 15:56 50.05004 8.11920 5960 ft 242 kts 254°
2026-04-14 15:56 50.04482 8.09441 5610 ft 241 kts 254°
2026-04-14 15:57 50.03743 8.07137 5322 ft 238 kts 228°
2026-04-14 15:57 50.02389 8.05787 5207 ft 231 kts 194°
2026-04-14 15:57 50.00827 8.05743 5096 ft 223 kts 168°
2026-04-14 15:57 49.99319 8.06271 5000 ft 221 kts 164°
2026-04-14 15:58 49.97844 8.06910 5004 ft 220 kts 157°
2026-04-14 15:58 49.96657 8.08311 5013 ft 215 kts 121°
2026-04-14 15:58 49.96047 8.10407 5008 ft 213 kts 106°
2026-04-14 15:58 49.95603 8.12593 5009 ft 208 kts 103°
2026-04-14 15:59 49.95416 8.14699 5029 ft 187 kts 84°
2026-04-14 15:59 49.95695 8.16594 4998 ft 178 kts 67°
2026-04-14 15:59 49.96132 8.18382 4818 ft 176 kts 66°
2026-04-14 15:59 49.96566 8.20152 4581 ft 175 kts 66°
2026-04-14 16:00 49.96995 8.21913 4334 ft 173 kts 67°
2026-04-14 16:00 49.97419 8.23659 4080 ft 173 kts 67°
2026-04-14 16:00 49.97840 8.25393 3856 ft 172 kts 67°
2026-04-14 16:00 49.98259 8.27121 3597 ft 171 kts 66°
2026-04-14 16:01 49.98678 8.28851 3347 ft 170 kts 67°
2026-04-14 16:01 49.99096 8.30578 3097 ft 171 kts 68°
2026-04-14 16:01 49.99514 8.32306 2845 ft 170 kts 68°
2026-04-14 16:01 49.99929 8.34022 2604 ft 170 kts 68°
2026-04-14 16:02 50.00343 8.35737 2354 ft 169 kts 66°
2026-04-14 16:02 50.00742 8.37385 2087 ft 157 kts 67°
2026-04-14 16:02 50.01098 8.38877 1899 ft 143 kts 66°
2026-04-14 16:02 50.01438 8.40292 1687 ft 133 kts 66°
2026-04-14 16:03 50.01754 8.41612 1512 ft 133 kts 65°
2026-04-14 16:03 50.02088 8.42979 1319 ft 134 kts 67°
2026-04-14 16:03 50.02414 8.44337 1119 ft 137 kts 67°
2026-04-14 16:03 50.02765 8.45728 938 ft 137 kts 65°
2026-04-14 16:04 50.03092 8.47122 742 ft 136 kts 68°
2026-04-14 16:04 50.03411 8.48517 549 ft 136 kts 65°
2026-04-14 16:04 50.03749 8.49890 372 ft 135 kts 69°
2026-04-14 16:04 50.04054 8.51156 355 ft 110 kts 68°
2026-04-14 16:05 50.04262 8.52023 350 ft 61 kts 69°
2026-04-14 16:05 50.04374 8.52565 353 ft 50 kts 77°
2026-04-14 16:05 50.04372 8.53012 351 ft 28 kts 99°
2026-04-14 16:05 50.04350 8.53269 346 ft 24 kts 87°
2026-04-14 16:06 50.04396 8.53529 350 ft 26 kts 82°
2026-04-14 16:06 50.04413 8.53796 353 ft 25 kts 84°
2026-04-14 16:06 50.04432 8.54079 352 ft 27 kts 84°
2026-04-14 16:06 50.04451 8.54341 346 ft 20 kts 83°
2026-04-14 16:07 50.04440 8.54551 353 ft 18 kts 106°
2026-04-14 16:07 50.04384 8.54693 354 ft 13 kts 136°
2026-04-14 16:07 50.04345 8.54741 351 ft 1 kts 146°
2026-04-14 16:07 50.04341 8.54745 350 ft 1 kts 146°
2026-04-14 16:08 50.04337 8.54749 350 ft 0 kts 148°
2026-04-14 16:08 50.04336 8.54750 350 ft 0 kts 148°
2026-04-14 16:08 50.04303 8.54777 348 ft 12 kts 154°
2026-04-14 16:08 50.04228 8.54822 349 ft 11 kts 161°
2026-04-14 16:09 50.04138 8.54871 348 ft 15 kts 160°
2026-04-14 16:09 50.04044 8.54928 346 ft 14 kts 153°
2026-04-14 16:09 50.04026 8.55051 354 ft 12 kts 69°
2026-04-14 16:09 50.04059 8.55187 351 ft 17 kts 69°
2026-04-14 16:10 50.04106 8.55378 353 ft 20 kts 70°
2026-04-14 16:10 50.04156 8.55594 355 ft 22 kts 70°
2026-04-14 16:10 50.04213 8.55826 354 ft 24 kts 69°
2026-04-14 16:10 50.04274 8.56081 352 ft 26 kts 69°
2026-04-14 16:11 50.04339 8.56356 349 ft 26 kts 70°
2026-04-14 16:11 50.04383 8.56542 353 ft 11 kts 70°
2026-04-14 16:11 50.04409 8.56651 351 ft 9 kts 69°
2026-04-14 16:11 50.04421 8.56702 350 ft 3 kts 69°
2026-04-14 16:12 50.04424 8.56713 350 ft 0 kts 69°
2026-04-14 16:12 50.04424 8.56714 349 ft 1 kts 69°
2026-04-14 16:13 50.04428 8.56730 355 ft 0 kts 70°
2026-04-14 16:19 50.04430 8.56740 353 ft 5 kts 70°
2026-04-14 16:19 50.04449 8.56823 353 ft 10 kts 66°
2026-04-14 16:19 50.04519 8.56879 346 ft 13 kts 14°
2026-04-14 16:20 50.04613 8.56913 350 ft 15 kts 14°
2026-04-14 16:20 50.04717 8.56980 349 ft 17 kts 25°
2026-04-14 16:20 50.04826 8.57059 354 ft 13 kts 25°
2026-04-14 16:20 50.04897 8.57071 349 ft 7 kts 336°
2026-04-14 16:21 50.04918 8.57072 347 ft 1 kts 70°
2026-04-14 16:21 50.04917 8.57081 355 ft 1 kts 94°
2026-04-14 16:21 50.04916 8.57086 355 ft 0 kts 97°